When you browse on this site, cookies collect data to enhance your experience and personalize the content and advertising you see.
Visit our Privacy Policy to learn more. By continuing to use the site, you agree to this use of cookies and data.
  • In Hungary
  • List of Countries
  • For 7 days
  • Water Temperature
  • Weather Map
  • News
  • Weather Widgets
  • user-avatar
    Login

    Hourly Weather Ozeryaevo

    Today, 23 January, Thursday

    Time Temperature Precipitation Wind Pressure Humidity
    00:00 -6°C° 0 mm 6 mps 736 mmHg 78%
    01:00 -6°C° 0 mm 6 mps 737 mmHg 74%
    02:00 -8°C° 0 mm 6 mps 738 mmHg 70%
    03:00 -8°C° 0.1 mm 6 mps 738 mmHg 71%
    04:00 -8°C° 0.1 mm 6 mps 738 mmHg 72%
    05:00 -9°C° 0.1 mm 6 mps 739 mmHg 73%
    06:00 -8°C° 0 mm 5 mps 739 mmHg 71%
    07:00 -8°C° 0 mm 5 mps 740 mmHg 69%
    08:00 -8°C° 0 mm 5 mps 741 mmHg 68%
    09:00 -8°C° 0 mm 5 mps 741 mmHg 65%
    10:00 -8°C° 0 mm 6 mps 741 mmHg 63%
    11:00 -8°C° 0 mm 6 mps 741 mmHg 61%
    12:00 -8°C° 0.1 mm 6 mps 742 mmHg 65%
    13:00 -8°C° 0.1 mm 6 mps 742 mmHg 69%
    14:00 -6°C° 0.1 mm 6 mps 742 mmHg 73%
    15:00 -6°C° 0.1 mm 5 mps 743 mmHg 74%
    16:00 -6°C° 0.1 mm 5 mps 743 mmHg 74%
    17:00 -6°C° 0.1 mm 5 mps 743 mmHg 75%
    18:00 -7°C° 0 mm 4 mps 743 mmHg 76%
    19:00 -6°C° 0 mm 3 mps 743 mmHg 77%
    20:00 -5°C° 0 mm 2 mps 743 mmHg 78%
    21:00 -5°C° 0 mm 2 mps 743 mmHg 79%
    22:00 -5°C° 0 mm 2 mps 743 mmHg 80%
    23:00 -5°C° 0 mm 2 mps 742 mmHg 81%

    Tomorrow, 24 January, Friday

    Time Temperature Precipitation Wind Pressure Humidity
    00:00 -5°C° 0 mm 3 mps 742 mmHg 84%
    01:00 -5°C° 0 mm 3 mps 741 mmHg 87%
    02:00 -5°C° 0 mm 4 mps 741 mmHg 90%
    03:00 -4°C° 0.1 mm 4 mps 740 mmHg 88%
    04:00 -4°C° 0.1 mm 4 mps 739 mmHg 85%
    05:00 -3°C° 0.1 mm 4 mps 737 mmHg 83%
    06:00 -3°C° 0.5 mm 4 mps 737 mmHg 87%
    07:00 -3°C° 0.5 mm 4 mps 736 mmHg 91%
    08:00 -3°C° 0.5 mm 4 mps 736 mmHg 95%
    09:00 -2°C° 0.1 mm 4 mps 735 mmHg 95%
    10:00 -1°C° 0.1 mm 4 mps 734 mmHg 96%
    11:00 0°C° 0.1 mm 4 mps 734 mmHg 96%
    12:00 0°C° 0.1 mm 4 mps 733 mmHg 96%
    13:00 0°C° 0.1 mm 4 mps 733 mmHg 95%
    14:00 0°C° 0.1 mm 4 mps 732 mmHg 95%
    15:00 0°C° 0.3 mm 4 mps 732 mmHg 95%
    16:00 0°C° 0.3 mm 4 mps 732 mmHg 94%
    17:00 0°C° 0.3 mm 4 mps 732 mmHg 94%
    18:00 -1°C° 0.1 mm 4 mps 732 mmHg 91%
    19:00 -1°C° 0.1 mm 4 mps 733 mmHg 88%
    20:00 -2°C° 0.1 mm 4 mps 733 mmHg 86%
    21:00 -2°C° 0 mm 4 mps 733 mmHg 87%
    22:00 -3°C° 0 mm 4 mps 733 mmHg 88%
    23:00 -3°C° 0 mm 4 mps 733 mmHg 90%

    Day after tomorrow, 25 January, Saturday

    Time Temperature Precipitation Wind Pressure Humidity
    00:00 -3°C° 0 mm 4 mps 733 mmHg 88%
    01:00 -3°C° 0 mm 4 mps 733 mmHg 87%
    02:00 -3°C° 0 mm 4 mps 732 mmHg 86%
    03:00 -3°C° 0 mm 4 mps 732 mmHg 85%
    04:00 -3°C° 0 mm 4 mps 732 mmHg 85%
    05:00 -3°C° 0 mm 4 mps 732 mmHg 85%
    06:00 -4°C° 0 mm 5 mps 731 mmHg 84%
    07:00 -2°C° 0 mm 5 mps 731 mmHg 83%
    08:00 -3°C° 0 mm 6 mps 731 mmHg 82%
    09:00 -3°C° 0.2 mm 6 mps 731 mmHg 82%
    10:00 -2°C° 0.2 mm 5 mps 731 mmHg 82%
    11:00 -2°C° 0.2 mm 5 mps 730 mmHg 82%
    12:00 -2°C° 0.6 mm 5 mps 731 mmHg 77%
    13:00 -2°C° 0.6 mm 5 mps 731 mmHg 73%
    14:00 -3°C° 0.6 mm 6 mps 731 mmHg 69%
    15:00 -4°C° 0.1 mm 5 mps 731 mmHg 72%
    16:00 -4°C° 0.1 mm 5 mps 731 mmHg 75%
    17:00 -5°C° 0.1 mm 5 mps 732 mmHg 78%
    18:00 -5°C° 0 mm 5 mps 732 mmHg 79%
    19:00 -5°C° 0 mm 5 mps 733 mmHg 80%
    20:00 -5°C° 0 mm 6 mps 734 mmHg 80%
    21:00 -5°C° 0 mm 6 mps 734 mmHg 80%
    22:00 -5°C° 0 mm 6 mps 735 mmHg 79%
    23:00 -5°C° 0 mm 6 mps 736 mmHg 78%

    26 January, Sunday

    Time Temperature Precipitation Wind Pressure Humidity
    00:00 -5°C° 0 mm 6 mps 736 mmHg 79%
    01:00 -6°C° 0 mm 5 mps 737 mmHg 79%
    02:00 -6°C° 0 mm 5 mps 738 mmHg 80%
    03:00 -6°C° 0 mm 5 mps 739 mmHg 80%
    04:00 -6°C° 0 mm 5 mps 740 mmHg 81%
    05:00 -7°C° 0 mm 4 mps 740 mmHg 81%
    06:00 -7°C° 0 mm 4 mps 741 mmHg 82%
    07:00 -7°C° 0 mm 4 mps 742 mmHg 84%
    08:00 -7°C° 0 mm 4 mps 743 mmHg 85%
    09:00 -7°C° 0 mm 4 mps 744 mmHg 83%
    10:00 -5°C° 0 mm 3 mps 745 mmHg 81%
    11:00 -5°C° 0 mm 3 mps 745 mmHg 79%
    12:00 -5°C° 0 mm 3 mps 745 mmHg 77%
    13:00 -4°C° 0 mm 3 mps 746 mmHg 76%
    14:00 -4°C° 0 mm 3 mps 746 mmHg 74%
    15:00 -5°C° 0 mm 3 mps 746 mmHg 79%
    16:00 -5°C° 0 mm 2 mps 746 mmHg 83%
    17:00 -5°C° 0 mm 2 mps 746 mmHg 87%
    18:00 -5°C° 0 mm 2 mps 746 mmHg 86%
    19:00 -5°C° 0 mm 2 mps 747 mmHg 86%
    20:00 -5°C° 0 mm 2 mps 747 mmHg 85%
    21:00 -5°C° 0 mm 2 mps 747 mmHg 85%
    22:00 -5°C° 0 mm 2 mps 747 mmHg 85%
    23:00 -3°C° 0 mm 1 mps 746 mmHg 86%

    27 January, Monday

    Time Temperature Precipitation Wind Pressure Humidity
    00:00 -4°C° 0.1 mm 2 mps 746 mmHg 89%
    01:00 -4°C° 0.1 mm 2 mps 746 mmHg 92%
    02:00 -4°C° 0.1 mm 2 mps 745 mmHg 96%
    03:00 -3°C° 0.5 mm 2 mps 745 mmHg 96%
    04:00 -2°C° 0.5 mm 2 mps 745 mmHg 97%
    05:00 -2°C° 0.5 mm 2 mps 744 mmHg 97%
    06:00 -1°C° 0.5 mm 2 mps 744 mmHg 97%
    07:00 0°C° 0.5 mm 3 mps 744 mmHg 97%
    08:00 0°C° 0.5 mm 3 mps 744 mmHg 97%
    09:00 0°C° 0.1 mm 3 mps 743 mmHg 97%
    10:00 0°C° 0.1 mm 3 mps 743 mmHg 97%
    11:00 0°C° 0.1 mm 3 mps 743 mmHg 97%
    12:00 0°C° 0.2 mm 3 mps 743 mmHg 97%
    13:00 0°C° 0.2 mm 3 mps 743 mmHg 97%
    14:00 0°C° 0.2 mm 3 mps 742 mmHg 97%
    15:00 0°C° 0.3 mm 3 mps 742 mmHg 97%
    16:00 0°C° 0.3 mm 3 mps 742 mmHg 97%
    17:00 0°C° 0.3 mm 3 mps 742 mmHg 97%
    18:00 0°C° 0.3 mm 3 mps 741 mmHg 97%
    19:00 -1°C° 0.3 mm 2 mps 741 mmHg 98%
    20:00 -1°C° 0.3 mm 2 mps 741 mmHg 98%
    21:00 -1°C° 0.3 mm 2 mps 740 mmHg 98%
    22:00 -1°C° 0.3 mm 2 mps 740 mmHg 98%
    23:00 -1°C° 0.3 mm 2 mps 740 mmHg 98%

    28 January, Tuesday

    Time Temperature Precipitation Wind Pressure Humidity
    00:00 -1°C° 0.2 mm 2 mps 739 mmHg 98%
    01:00 -1°C° 0.2 mm 2 mps 739 mmHg 98%
    02:00 -1°C° 0.2 mm 2 mps 739 mmHg 98%
    03:00 -1°C° 0.1 mm 2 mps 738 mmHg 98%
    04:00 -1°C° 0.1 mm 2 mps 738 mmHg 98%
    05:00 +1°C° 0.1 mm 1 mps 738 mmHg 98%
    06:00 +1°C° 0.2 mm 1 mps 738 mmHg 98%
    07:00 +1°C° 0.2 mm 1 mps 738 mmHg 98%
    08:00 +1°C° 0.2 mm 1 mps 738 mmHg 98%
    09:00 +1°C° 0.1 mm 1 mps 738 mmHg 98%
    10:00 +1°C° 0.1 mm 1 mps 739 mmHg 97%
    11:00 +1°C° 0.1 mm 1 mps 739 mmHg 97%
    12:00 +1°C° 0 mm 1 mps 739 mmHg 96%
    13:00 +1°C° 0 mm 1 mps 740 mmHg 96%
    14:00 +2°C° 0 mm 1 mps 740 mmHg 96%
    15:00 +1°C° 0 mm 1 mps 740 mmHg 96%
    16:00 +1°C° 0 mm 1 mps 741 mmHg 96%
    17:00 -1°C° 0 mm 2 mps 741 mmHg 96%
    18:00 -1°C° 0 mm 2 mps 741 mmHg 95%
    19:00 -1°C° 0 mm 2 mps 741 mmHg 93%
    20:00 -1°C° 0 mm 2 mps 741 mmHg 91%
    21:00 -2°C° 0 mm 2 mps 741 mmHg 91%
    22:00 -2°C° 0 mm 3 mps 741 mmHg 91%
    23:00 -4°C° 0 mm 3 mps 740 mmHg 90%
    Show more